TimeEST,TemperatureF,Dew PointF,Humidity,Sea Level PressureIn,VisibilityMPH,Wind Direction,Wind SpeedMPH,Gust SpeedMPH,PrecipitationIn,Events,Conditions,WindDirDegrees,DateUTC
12:53 AM,30.9,28.0,89,30.00,10.0,Calm,Calm,-,N/A,,Clear,0,2006-01-01 05:53:00
1:53 AM,28.9,26.1,89,30.00,10.0,SE,6.9,-,N/A,,Clear,140,2006-01-01 06:53:00
2:53 AM,30.0,27.0,88,30.01,10.0,Calm,Calm,-,N/A,,Clear,0,2006-01-01 07:53:00
3:53 AM,30.0,27.0,88,30.03,10.0,Calm,Calm,-,N/A,,Clear,0,2006-01-01 08:53:00
4:53 AM,28.0,26.1,92,30.05,10.0,Calm,Calm,-,N/A,,Clear,0,2006-01-01 09:53:00
5:53 AM,25.0,23.0,92,30.08,10.0,Calm,Calm,-,N/A,,Clear,0,2006-01-01 10:53:00
6:53 AM,25.0,24.1,96,30.09,10.0,Calm,Calm,-,N/A,,Mostly Cloudy,0,2006-01-01 11:53:00
7:53 AM,27.0,24.1,89,30.10,10.0,Calm,Calm,-,N/A,,Partly Cloudy,0,2006-01-01 12:53:00
8:53 AM,28.9,27.0,92,30.13,10.0,Calm,Calm,-,N/A,,Scattered Clouds,0,2006-01-01 13:53:00
9:53 AM,35.1,30.9,85,30.12,10.0,Calm,Calm,-,N/A,,Scattered Clouds,0,2006-01-01 14:53:00
10:53 AM,42.1,33.1,70,30.12,10.0,Calm,Calm,-,N/A,,Scattered Clouds,0,2006-01-01 15:53:00
11:53 AM,45.0,34.0,65,30.10,10.0,Calm,Calm,-,N/A,,Mostly Cloudy,0,2006-01-01 16:53:00
12:53 PM,50.0,33.1,52,30.06,10.0,Calm,Calm,-,N/A,,Scattered Clouds,0,2006-01-01 17:53:00
1:53 PM,55.9,27.0,33,30.03,10.0,Calm,Calm,-,N/A,,Scattered Clouds,0,2006-01-01 18:53:00
2:53 PM,59.0,21.0,23,30.01,10.0,Calm,Calm,-,N/A,,Scattered Clouds,0,2006-01-01 19:53:00
3:53 PM,61.0,25.0,25,30.00,10.0,Calm,Calm,-,N/A,,Partly Cloudy,0,2006-01-01 20:53:00
4:53 PM,57.9,24.1,27,30.00,10.0,Calm,Calm,-,N/A,,Partly Cloudy,0,2006-01-01 21:53:00
5:53 PM,46.9,27.0,46,30.02,10.0,Calm,Calm,-,N/A,,Partly Cloudy,0,2006-01-01 22:53:00
6:53 PM,42.1,27.0,55,30.02,10.0,Calm,Calm,-,N/A,,Clear,0,2006-01-01 23:53:00
7:53 PM,43.0,26.1,51,30.02,10.0,Calm,Calm,-,N/A,,Clear,0,2006-01-02 00:53:00
8:53 PM,41.0,26.1,55,30.02,10.0,Calm,Calm,-,N/A,,Clear,0,2006-01-02 01:53:00
9:53 PM,41.0,26.1,55,30.04,10.0,Calm,Calm,-,N/A,,Partly Cloudy,0,2006-01-02 02:53:00
10:53 PM,46.9,28.0,48,30.01,10.0,Calm,Calm,-,N/A,,Mostly Cloudy,0,2006-01-02 03:53:00
11:53 PM,48.9,30.9,50,29.99,10.0,Calm,Calm,-,N/A,,Overcast,0,2006-01-02 04:53:00